STARLINK-11528, 62521

Orbit data source: Space-Track

STARLINK-11528, 62521 is a payload satellite owned by SpaceX/Seattle (US) in LEO that was launched on Wed, 08 Jan 2025 UTC via an FALCON 9 launch vehicle from the Air Force Eastern Test Range (AFETR). Payload-class satellites include a variety of spacecraft equipped with specific instruments for various scientific and technological missions. These include communications satellites like Starlink; space stations such as the ISS; scientific satellites like the Hubble; Earth observation satellites from companies like Planet Labs, Umbra, and HawkEye 360; GPS; miniature CubeSats for education and research; and military/defense satellites.

Loading next visibility...
Identifier
62521, 2025-004L
Orbit
LEO
Country
Flag of USUS
Related business
Manufacturer
SpaceX/Seattle
Mission
Operational Commercial Communications
Bus & Motor
STARLINK V2MD, Unknown motor
Mass
960 kg wet, ~910 kg dry
Launch date (UTC)
2025-01-08 (1 year ago)
Launch vehicle
FALCON 9
Launch site
Air Force Eastern Test Range (AFETR)
Object type
Payload
Rocket body
Debris
Shape & HBR
Box + 2 Pan, 18.1 m
Radar Cross Section
36.964 m², Large (>1 m²)

Expand to show TLE details & history
Last TLE update: 1 day ago

TLE from 1 day ago
0 STARLINK-11528
1 62521U 25004L   26094.49803010  .00255877  00000-0  19252-2 0  9998
2 62521  42.9998 275.5058 0001853 258.1583 101.9077 15.70984055 71265
Epoch: 2026-04-04T11:57Z
TLE epoch observation values (Epoch: 2026-04-04T11:57:09.800Z)
Latitude
-0.00002°
Longitude
-96.602°
Altitude
356.112 km
Speed
7.697 km/s
True Right ascension
18h 22m 01s
True Declination
0° 00' 00"
Sunlit
Object was in daylight at epoch
Visualization orbit readout
Latitude
Unknown
Longitude
Unknown
Altitude
Unknown
Speed
Unknown
Apparent Right ascension
Unknown
Apparent Declination
Unknown
Sunlit
N/A
Visualization observer readout
Local Sidereal Time
21:12:11
Azimuth
Unknown
Elevation
Unknown
Doppler factor
Unknown
Orbital elements
Apogee altitude
359.313 km
Perigee altitude
356.817 km
Semi-major axis
6,736.202 km
Eccentricity
0.00019
Inclination
42.9998°
RAAN
275.5058°
Arg. of periapsis
258.1583°
True anomaly
101.92848°
Mean anomaly
101.9077°
Eccentric anomaly
101.91809°
Mean motion
3.92573 °/min
Orbital period
91.7 mins
BSTAR
0.0019252
Loading maneuver chart data...
Computing Atmospheric mass density...
Loading historical data...
Loading historical data...
Loading historical data...
Loading historical data...
Loading historical data...
Loading historical data...
Loading historical data...

Documentation

Showing up to 5 results
|